Retour au catalogue

COSMOS 1818 COOLANT

LostLEO
NORAD 50773·DEBRIS·🇷🇺 Russia

Lancé Feb 1, 1987 depuis Baikonur Cosmodrome

Loading…

Prochains Passages (prochaines 24 heures)

TLE

PériméSource: Space-Track

Époque: Oct 28, 2022, 11:40 UTC

1 50773U 87011AN  22301.48636637  .00000512  00000-0  21820-3 0  9994
2 50773  65.0098 337.3866 0012762 266.2741  93.6885 14.34149776525382

Suivez COSMOS 1818 COOLANT en temps réel avec AllMySat

Download on the App Store